George, South Africa

3:34 PM SAST on January 20, 2018 (GMT +0200)
George

Weather History for FAGG - April, 2013

Change the Weather History Date:

Sunday, April 7, 2013

  Actual Average Record
Temperature  
Mean Temperature 62 °F -  
Max Temperature 67 °F 70 °F 88 °F (2014)
Min Temperature 55 °F 52 °F 48 °F (2002)
Degree Days  
Heating Degree Days 4    
Growing Degree Days 12 (Base 50)    
Moisture  
Dew Point 54 °F    
Average Humidity 74    
Maximum Humidity 88    
Minimum Humidity 48    
Precipitation  
Precipitation 0.00 in - - ()
Sea Level Pressure  
Sea Level Pressure 29.85 in    
Wind  
Wind Speed 4 mph ()    
Max Wind Speed 9 mph    
Max Gust Speed -    
Visibility 7.9 miles    
Events      
Averages and records for this station are not official NWS values.
T = Trace of Precipitation, MM = Missing Value Source: Averaged Metar Reports

Daily Weather History Graph

Daily Weather History Graph

Search for Another Location

Airport or City:

Trip Planner

Search our weather history database for the weather conditions in past years. The results will help you decide how hot, cold, wet, or windy it might be!

Date:

Astronomy

Apr. 07, 2013 Rise Set
Actual Time 6:47 AM SAST 6:17 PM SAST
Civil Twilight 6:22 AM SAST 6:42 PM SAST
Nautical Twilight 5:53 AM SAST 7:11 PM SAST
Astronomical Twilight 5:24 AM SAST 7:40 PM SAST
Moon 3:45 AM SAST (4/7) 4:25 PM SAST (4/7)
Length of Visible Light 12h 20m
Length of Day
11h 30m
Waning Crescent, 10% of the Moon is Illuminated
Apr 7
Waning Crescent
Apr 10
New
Apr 18
First Quarter
Apr 25
Full
May 2
Last Quarter

Hourly Weather History & Observations

Time (SAST) Temp. Dew Point Humidity Pressure Visibility Wind Dir Wind Speed Gust Speed Precip Events Conditions
12:00 AM 60.8 °F 57.2 °F 88% 29.98 in 6.2 mi North 4.6 mph - N/A   Overcast
1:00 AM 60.8 °F 57.2 °F 88% 29.95 in 6.2 mi NNW 4.6 mph - N/A   Overcast
2:00 AM 61 °F 56 °F 80% 29.94 in 12 mi NNW 5.8 mph - -  
2:00 AM 60.8 °F 55.4 °F 82% 29.95 in 6.2 mi NNW 5.8 mph - N/A   Overcast
3:00 AM 62.6 °F 55.4 °F 77% 29.92 in 6.2 mi NW 5.8 mph - N/A   Overcast
4:00 AM 60.8 °F 55.4 °F 82% 29.89 in 6.2 mi NNW 4.6 mph - N/A   Mostly Cloudy
5:00 AM 60 °F 55 °F 79% 29.88 in 12 mi WNW 2.3 mph - -   Mostly Cloudy
5:00 AM 60.8 °F 55.4 °F 82% 29.89 in 6.2 mi Variable 2.3 mph - N/A   Mostly Cloudy
6:00 AM 57.2 °F 53.6 °F 88% 29.89 in 6.2 mi WNW 4.6 mph - N/A   Scattered Clouds
7:00 AM 57.2 °F 53.6 °F 88% 29.89 in 6.2 mi NW 3.5 mph - N/A   Partly Cloudy
8:00 AM 58 °F 55 °F 85% 29.90 in 12 mi NW 3.5 mph - -   Mostly Cloudy
8:00 AM 59.0 °F 55.4 °F 88% 29.89 in 6.2 mi NW 3.5 mph - N/A   Mostly Cloudy
9:00 AM 62.6 °F 57.2 °F 82% 29.89 in 6.2 mi West 3.5 mph - N/A   Mostly Cloudy
10:00 AM 64.4 °F 57.2 °F 77% 29.89 in 6.2 mi Variable 2.3 mph - N/A   Mostly Cloudy
11:00 AM 67 °F 57 °F 61% 29.86 in 19 mi 3.5 mph - -   Mostly Cloudy
11:00 AM 66.2 °F 57.2 °F 73% 29.86 in 6.2 mi Variable 4.6 mph - N/A   Mostly Cloudy
12:00 PM 66.2 °F 55.4 °F 68% 29.83 in 6.2 mi South 6.9 mph - N/A   Mostly Cloudy
1:00 PM 66.2 °F 55.4 °F 68% 29.83 in 6.2 mi South 9.2 mph - N/A   Mostly Cloudy
2:00 PM 65 °F 52 °F 53% 29.82 in 12 mi SSW 8.1 mph - -   Mostly Cloudy
2:00 PM 64.4 °F 51.8 °F 64% 29.80 in 6.2 mi SSW 8.1 mph - N/A   Mostly Cloudy
3:00 PM 66.2 °F 51.8 °F 60% 29.80 in 6.2 mi South 6.9 mph - N/A   Mostly Cloudy
4:00 PM 68.0 °F 51.8 °F 56% 29.77 in 6.2 mi SSW 6.9 mph - N/A   Partly Cloudy
5:00 PM 66 °F 51 °F 48% 29.80 in 12 mi SSW 5.8 mph - -   Scattered Clouds
5:00 PM 66.2 °F 51.8 °F 60% 29.77 in 6.2 mi SSW 5.8 mph - N/A   Partly Cloudy
6:00 PM 66.2 °F 51.8 °F 60% 29.77 in 6.2 mi SSW 3.5 mph - N/A   Partly Cloudy
7:00 PM 62.6 °F 50.0 °F 63% 29.80 in 6.2 mi ENE 4.6 mph - N/A   Partly Cloudy
8:00 PM 58 °F 52 °F 73% 29.81 in 12 mi NNE 4.6 mph - -   Scattered Clouds
8:00 PM 59.0 °F 51.8 °F 77% 29.80 in 6.2 mi NNE 4.6 mph - N/A   Partly Cloudy
9:00 PM 57.2 °F 51.8 °F 82% 29.80 in - NNE 3.5 mph - N/A   Clear
10:00 PM 57.2 °F 51.8 °F 82% 29.80 in - NE 4.6 mph - N/A   Clear
11:00 PM 55.4 °F 50.0 °F 82% 29.80 in - NW 3.5 mph - N/A   Clear